IV3CVE-H1 Weather Reports


time (UTC)temp
F
wind
direction
speed
knots
gust
knots
rain 1hr
in
rain 24hr
in
rain mn
in
humidity
%
barometer
mb
20260502231515 54 9 0.0 1.7 0.00 0.00 0.00 82 1018.4
20260502230517 55 9 0.9 4.3 0.00 0.00 0.00 82 1018.4
20260502225517 55 332 0.9 3.5 0.00 0.00 0.00 81 1018.4
20260502224536 56 58 1.7 3.5 0.00 0.00 0.00 80 1018.4
20260502223515 56 82 1.7 3.5 0.00 0.00 0.00 79 1018.4
20260502222515 56 86 0.9 5.2 0.00 0.00 0.00 79 1018.4
20260502221535 56 81 2.6 5.2 0.00 0.00 0.00 78 1018.4
20260502220517 56 81 2.6 4.3 0.00 0.00 0.00 77 1018.4
20260502215517 57 75 3.5 5.2 0.00 0.00 0.00 75 1018.5
20260502214516 57 74 2.6 5.2 0.00 0.00 0.00 74 1018.5
20260502213516 57 71 2.6 6.1 0.00 0.00 0.00 73 1018.5
20260502212516 58 75 1.7 5.2 0.00 0.00 0.00 72 1018.5
20260502211516 58 73 1.7 5.2 0.00 0.00 0.00 72 1018.4
20260502210516 57 63 1.7 4.3 0.00 0.00 0.00 72 1018.5
20260502205556 57 65 1.7 5.2 0.00 0.00 0.00 72 1018.5
20260502204515 57 65 1.7 5.2 0.00 0.00 0.00 72 1018.5
20260502203535 57 38 2.6 4.3 0.00 0.00 0.00 71 1018.5
20260502202517 57 13 2.6 3.5 0.00 0.00 0.00 71 1018.5
20260502201517 58 9 2.6 3.5 0.00 0.00 0.00 69 1018.5
20260502200517 59 9 2.6 3.5 0.00 0.00 0.00 68 1018.5
20260502195557 59 50 1.7 2.6 0.00 0.00 0.00 66 1018.5
20260502194516 60 138 0.0 0.9 0.00 0.00 0.00 64 1018.4
20260502193536 61 138 0.9 1.7 0.00 0.00 0.00 62 1018.2
20260502192516 62 138 0.9 3.5 0.00 0.00 0.00 60 1018.2
20260502191516 63 139 0.9 2.6 0.00 0.00 0.00 59 1018.1
20260502190516 64 133 0.9 3.5 0.00 0.00 0.00 57 1018.1
20260502185515 65 134 0.9 2.6 0.00 0.00 0.00 56 1018.0
20260502184517 66 142 0.9 3.5 0.00 0.00 0.00 54 1018.0
20260502183516 67 141 0.9 5.2 0.00 0.00 0.00 52 1017.9
20260502182556 67 139 1.7 3.5 0.00 0.00 0.00 50 1017.8
20260502181515 68 160 2.6 6.1 0.00 0.00 0.00 48 1017.7
20260502180536 69 162 0.9 6.1 0.00 0.00 0.00 48 1017.7
20260502163516 75 170 4.3 12.2 0.00 0.00 0.00 40 1017.8
20260502162536 76 185 3.5 11.3 0.00 0.00 0.00 39 1017.8
20260502161515 77 170 3.5 11.3 0.00 0.00 0.00 38 1017.8
20260502160515 77 184 7.0 12.2 0.00 0.00 0.00 38 1017.8
20260502151536 78 184 6.1 11.3 0.00 0.00 0.00 37 1018.4
20260502150516 78 183 7.0 9.6 0.00 0.00 0.00 37 1018.5
20260502130517 78 217 7.8 14.8 0.00 0.00 0.00 36 1019.9
20260502123516 79 193 5.2 13.0 0.00 0.00 0.00 36 1020.2
20260502122516 79 185 6.1 10.4 0.00 0.00 0.00 36 1020.4
20260502121516 78 223 7.0 10.4 0.00 0.00 0.00 37 1020.5
20260502120515 78 218 4.3 10.4 0.00 0.00 0.00 37 1020.6
20260502115516 77 201 7.8 11.3 0.00 0.00 0.00 38 1020.7
20260502114636 77 182 7.0 13.9 0.00 0.00 0.00 37 1020.9
20260502113517 77 196 3.5 13.9 0.00 0.00 0.00 38 1021.0
20260502112517 77 224 5.2 13.0 0.00 0.00 0.00 39 1021.1
20260502111517 77 224 8.7 14.8 0.00 0.00 0.00 38 1021.3
20260502110516 77 182 2.6 12.2 0.00 0.00 0.00 39 1021.5
20260502105516 76 200 6.1 10.4 0.00 0.00 0.00 40 1021.6
20260502104516 75 198 7.0 11.3 0.00 0.00 0.00 42 1021.7
20260502103517 75 218 5.2 11.3 0.00 0.00 0.00 40 1021.8
20260502102517 75 216 5.2 10.4 0.00 0.00 0.00 39 1021.9
20260502101517 75 182 3.5 10.4 0.00 0.00 0.00 41 1022.0
20260502100537 75 209 4.3 9.6 0.00 0.00 0.00 40 1022.1
20260502091515 72 181 3.5 6.1 0.00 0.00 0.00 41 1022.6
20260502090515 71 170 2.6 5.2 0.00 0.00 0.00 43 1022.7
20260502071515 63 37 0.9 4.3 0.00 0.00 0.00 57 1023.3
20260502070515 62 73 1.7 4.3 0.00 0.00 0.00 58 1023.4
20260502065517 61 40 1.7 5.2 0.00 0.00 0.00 59 1023.5
20260502064517 61 53 3.5 6.1 0.00 0.00 0.00 60 1023.5
20260502063516 60 59 0.9 4.3 0.00 0.00 0.00 61 1023.6
20260502062516 60 36 0.9 6.1 0.00 0.00 0.00 62 1023.6
20260502061515 59 38 2.6 5.2 0.00 0.00 0.00 62 1023.6
20260502060517 58 35 0.9 5.2 0.00 0.00 0.00 64 1023.7
20260502055517 57 45 1.7 4.3 0.00 0.00 0.00 67 1023.8
20260502054517 56 45 2.6 5.2 0.00 0.00 0.00 67 1023.8
20260502053517 55 38 1.7 3.5 0.00 0.00 0.00 69 1023.8
20260502052537 53 14 1.7 4.3 0.00 0.00 0.00 71 1023.8
20260502051516 52 16 1.7 4.3 0.00 0.00 0.00 73 1023.8
20260502050516 50 36 1.7 4.3 0.00 0.00 0.00 75 1023.8
20260502045516 49 19 2.6 4.3 0.00 0.00 0.00 76 1023.7
20260502044516 49 9 0.9 1.7 0.00 0.00 0.00 76 1023.7
20260502043516 48 9 0.0 2.6 0.00 0.00 0.00 76 1023.7
20260502042515 48 9 0.9 4.3 0.00 0.00 0.00 77 1023.6
20260502041515 47 21 2.6 5.2 0.00 0.00 0.00 78 1023.6
20260502040517 47 23 3.5 7.0 0.00 0.00 0.00 78 1023.5
20260502035517 47 27 5.2 7.0 0.00 0.00 0.00 79 1023.5
20260502034517 47 25 3.5 7.8 0.00 0.00 0.00 79 1023.5
20260502033537 47 19 3.5 5.2 0.00 0.00 0.00 78 1023.6
20260502032537 47 19 3.5 4.3 0.00 0.00 0.00 78 1023.6
20260502031516 47 13 1.7 4.3 0.00 0.00 0.00 77 1023.6
20260502030516 48 6 1.7 3.5 0.00 0.00 0.00 77 1023.6
20260502025515 48 11 1.7 4.3 0.00 0.00 0.00 77 1023.7
20260502024515 48 13 3.5 5.2 0.00 0.00 0.00 78 1023.7
20260502023515 48 18 2.6 5.2 0.00 0.00 0.00 78 1023.8
20260502022517 48 18 1.7 5.2 0.00 0.00 0.00 78 1023.8
20260502021516 48 20 1.7 7.8 0.00 0.00 0.00 78 1023.9
20260502020516 48 20 3.5 6.1 0.00 0.00 0.00 78 1023.8
20260502015536 48 18 1.7 5.2 0.00 0.00 0.00 79 1023.8
20260502014536 48 14 4.3 5.2 0.00 0.00 0.00 80 1023.9
20260502013535 48 21 3.5 4.3 0.00 0.00 0.00 80 1024.0
20260502012535 48 23 3.5 5.2 0.00 0.00 0.00 80 1024.0
20260502011515 48 20 1.7 4.3 0.00 0.00 0.00 80 1024.0
20260502010538 48 13 2.6 4.3 0.00 0.00 0.00 80 1024.0
20260502005517 48 29 1.7 3.5 0.00 0.00 0.00 79 1024.0
20260502004517 48 31 2.6 3.5 0.00 0.00 0.00 77 1023.9
20260502003516 48 33 1.7 4.3 0.00 0.00 0.00 76 1024.0
20260502002516 49 27 1.7 3.5 0.00 0.00 0.00 75 1024.1
20260502001516 49 27 2.6 4.3 0.00 0.00 0.00 75 1024.1
20260502000516 49 20 1.7 6.1 0.00 0.00 0.00 74 1024.1
20260501235516 50 22 3.5 5.2 0.00 0.00 0.00 74 1024.2
20260501234515 50 17 1.7 3.5 0.00 0.00 0.00 73 1024.2
20260501233515 49 24 1.7 3.5 0.00 0.00 0.00 72 1024.2
20260501232515 49 32 0.9 4.3 0.00 0.00 0.00 72 1024.1